[[{"header":{"parameterUnit":"m.s-1","parameterCategory":1,"la1":30.2991,"la2":30.254,"lo1":-89.0895,"lo2":-89.0444,"dy":0.0017,"dx":0.0017,"nx":28,"ny":28,"refTime":"2025-08-15T21:00:00:Z","depth":0,"parameterNumber":2,"parameterNumberName":"U-component_of_WINDS"},"data":[0,0,0,0,0,0,0,0,0,0,0,0,0,0,0,0,0,0,0,0,0,0,0,0,0,0,0,0,0,0,0,0,0,0,0,0,0,0,0,0,0,0,0,0,0,0,0,0,0,0,0,0,0,0,0,0,0,0,1.4975,1.4974,0,1.4902,1.4901,1.49,1.4829,1.4828,1.4827,1.4827,1.4748,1.4747,1.4746,0,0,0,0,0,0,0,0,0,0,0,0,0,1.5052,1.5051,1.4975,1.4974,1.4973,1.4902,1.4901,1.49,1.4829,1.4828,1.4827,1.4826,1.4749,1.4747,1.4746,0,0,0,0,0,0,0,0,0,0,0,0,0,1.5003,1.5051,1.4975,1.493,1.4925,1.4902,1.4901,1.4899,1.483,1.4828,1.4827,1.4826,1.4749,1.4747,1.4745,1.4761,0,0,1.474,1.4739,0,0,0,0,0,0,0,0,1.5005,1.5,1.4937,1.4933,1.4927,1.4873,1.4899,1.4853,1.483,1.4866,1.4827,1.4825,1.4791,1.4785,1.4774,1.4757,1.4754,1.474,1.4738,1.4738,1.4737,0,0,0,0,0,0,0,1.5009,1.5003,1.4946,1.4936,1.493,1.4912,1.4904,1.489,1.4836,1.4862,1.4857,1.485,1.4788,1.4776,1.4772,1.4753,1.474,1.4738,1.4737,1.4736,1.4745,1.4747,0,0,0,0,0,0,1.502,1.5006,1.4948,1.4944,1.4964,1.4912,1.4902,1.4892,1.4836,1.4827,1.4851,1.4847,1.478,1.4774,1.4769,1.4784,1.4738,1.4736,1.4735,1.4744,1.4746,1.4747,0,0,0,0,0,0,1.5022,1.5015,1.4951,1.4973,1.4964,1.4912,1.4901,1.4891,1.488,1.4828,1.4818,1.4849,1.4779,1.4772,1.4764,1.478,1.4735,1.4733,1.4742,1.4744,1.4746,1.4814,0,0,0,0,0,0,1.5024,1.5016,1.5022,1.4974,1.4963,1.4948,1.4902,1.4891,1.4877,1.4871,1.4824,1.4814,1.4777,1.4767,1.4762,1.4777,1.4732,1.4741,1.4743,1.4746,1.481,1.4818,1.4825,0,0,0,0,0,1.5027,1.5043,1.5023,1.5016,1.4969,1.4949,1.4943,1.4901,1.4879,1.4884,1.4851,1.4816,1.478,1.4767,1.4761,1.4775,1.4739,1.4743,1.4745,1.4807,1.4817,1.4825,0,0,0,0,0,0,1.5093,1.5036,1.5013,1.5014,1.4987,1.4937,1.4942,1.4912,1.489,1.4885,1.4833,1.4823,1.4821,1.4797,1.4784,1.4788,1.4755,1.4757,1.4803,1.4812,1.482,1.4825,1.473,0,0,0,0,0,1.5108,1.5097,1.5048,1.5053,1.5041,1.4995,1.4984,1.4954,1.4924,1.4912,1.4878,1.4849,1.4831,1.482,1.4801,1.4807,1.4795,1.4813,1.4821,1.4827,1.483,1.4832,1.4839,1.4757,1.4757,1.4757,0,0,1.5138,1.5105,1.5102,1.5066,1.5041,1.5031,1.4985,1.4976,1.4968,1.491,1.4901,1.4876,1.484,1.4839,1.4837,1.4819,1.485,1.4831,1.4837,1.4835,1.4836,1.4844,1.4851,1.4759,1.4759,1.4759,0,0,1.5188,1.5162,1.5164,1.5142,1.5106,1.5075,1.5076,1.5031,1.5013,1.5003,1.496,1.4949,1.4919,1.4896,1.488,1.4923,1.4891,1.4918,1.4957,1.496,1.4966,1.4972,1.4988,1.4994,1.4921,1.4921,1.4921,0,1.5229,1.5213,1.5169,1.5163,1.5149,1.5098,1.51,1.508,1.5039,1.503,1.5011,1.4974,1.4946,1.494,1.495,1.4939,1.4938,1.4923,1.4969,1.4974,1.4979,1.4993,1.4999,1.4924,1.4924,1.4924,1.4923,0,1.5266,1.5255,1.5261,1.5226,1.5212,1.521,1.5166,1.5157,1.5129,1.51,1.5091,1.5057,1.503,1.5026,1.4998,1.5016,1.5006,1.4979,1.4945,1.4991,1.5004,1.5009,1.493,1.4928,1.4927,1.4926,0,0,1.5354,1.5295,1.5298,1.5282,1.524,1.5231,1.5227,1.5202,1.5196,1.517,1.5165,1.5142,1.5117,1.5099,1.5068,1.507,1.5107,1.5042,1.504,1.5056,1.5126,1.5147,1.5155,1.5086,1.5087,1.5087,1.5129,0,1.5397,1.5387,1.5349,1.5351,1.5341,1.5293,1.529,1.5263,1.5237,1.5224,1.5193,1.5178,1.5146,1.5135,1.5135,1.5103,1.5121,1.5099,1.508,1.508,1.5091,1.5161,1.5183,1.5224,1.5134,1.5135,1.5135,0,1.5445,1.5424,1.5426,1.5386,1.538,1.5378,1.5352,1.5341,1.531,1.529,1.5272,1.5238,1.523,1.5199,1.5188,1.5175,1.5165,1.5148,1.5148,1.5145,1.5111,1.516,1.5236,1.5243,1.5143,1.5142,1.5142,0,1.551,1.5482,1.548,1.5467,1.542,1.5419,1.5399,1.5368,1.5356,1.5333,1.5325,1.5302,1.5289,1.5272,1.5232,1.5213,1.5226,1.5191,1.521,1.5211,1.5214,1.5215,1.5291,1.5208,1.5208,1.5208,1.5208,0,1.5562,1.5565,1.5509,1.5507,1.5509,1.5465,1.5468,1.5443,1.5415,1.5408,1.5365,1.5359,1.5307,1.5294,1.5263,1.526,1.5254,1.5238,1.5229,1.5242,1.5244,1.5234,1.523,1.5209,1.5209,1.5209,1.5209,0,1.5634,1.5597,1.5591,1.5548,1.5537,1.554,1.5502,1.5499,1.547,1.5462,1.5457,1.5412,1.5395,1.5354,1.5326,1.5305,1.531,1.5295,1.5321,1.5316,1.5337,1.5336,1.541,1.5417,1.533,1.5331,1.5331,0,1.567,1.5671,1.5628,1.5621,1.5604,1.5592,1.558,1.5537,1.5526,1.5492,1.5493,1.5474,1.5456,1.5432,1.5396,1.5375,1.5359,1.5386,1.5355,1.5368,1.5359,1.536,1.536,1.5393,1.5394,1.5395,1.5396,0,1.5737,1.5719,1.5704,1.5684,1.5671,1.5652,1.5631,1.5627,1.5578,1.5568,1.5552,1.5539,1.5511,1.5493,1.5466,1.5445,1.5412,1.5406,1.5409,1.5422,1.5437,1.543,1.534,1.5404,1.5403,1.5403,1.5402,1.5402,1.5792,1.5792,1.5762,1.5747,1.5727,1.5709,1.5704,1.5676,1.5662,1.5637,1.5612,1.5599,1.5569,1.553,1.5511,1.55,1.5483,1.5487,1.5488,1.549,1.5496,1.544,1.5495,1.5494,1.5494,1.5494,1.5493,0,1.5858,1.5837,1.5824,1.5796,1.5785,1.5757,1.5732,1.5724,1.5714,1.5689,1.5673,1.5655,1.5637,1.56,1.5579,1.5577,1.5561,1.5573,1.5572,1.5568,1.5512,1.5512,1.5586,1.5586,1.5586,1.5586,1.5586,1.5586,1.589,1.5889,1.5867,1.5855,1.5834,1.5822,1.581,1.5793,1.5773,1.5755,1.5741,1.5718,1.5688,1.5665,1.5647,1.5637,1.5631,1.5647,1.5632,1.5581,1.5572,1.5564,1.5563,1.5646,1.5646,1.5689,1.5689,1.569]},{"header":{"parameterUnit":"m.s-1","parameterCategory":1,"la1":30.2991,"la2":30.254,"lo1":-89.0895,"lo2":-89.0444,"dy":0.0017,"dx":0.0017,"nx":28,"ny":28,"refTime":"2025-08-15T21:00:00:Z","depth":0,"parameterNumber":3,"parameterNumberName":"V-component_of_WINDS"},"data":[0,0,0,0,0,0,0,0,0,0,0,0,0,0,0,0,0,0,0,0,0,0,0,0,0,0,0,0,0,0,0,0,0,0,0,0,0,0,0,0,0,0,0,0,0,0,0,0,0,0,0,0,0,0,0,0,0,0,-2.7058,-2.7059,0,-2.7143,-2.7144,-2.7145,-2.7123,-2.7121,-2.712,-2.7118,-2.7204,-2.7207,-2.7211,0,0,0,0,0,0,0,0,0,0,0,0,0,-2.6876,-2.6879,-2.7058,-2.7059,-2.706,-2.7143,-2.7144,-2.7146,-2.7123,-2.7121,-2.7119,-2.7117,-2.7202,-2.7207,-2.7212,0,0,0,0,0,0,0,0,0,0,0,0,0,-2.6957,-2.688,-2.7058,-2.7059,-2.706,-2.7143,-2.7144,-2.7146,-2.7124,-2.7121,-2.7119,-2.7116,-2.7201,-2.7206,-2.7212,-2.7298,0,0,-2.723,-2.7232,0,0,0,0,0,0,0,0,-2.6953,-2.6964,-2.7058,-2.7059,-2.7061,-2.712,-2.7111,-2.7197,-2.7124,-2.71,-2.7118,-2.7115,-2.7178,-2.7185,-2.7207,-2.7302,-2.7306,-2.723,-2.7234,-2.7236,-2.7238,0,0,0,0,0,0,0,-2.6947,-2.696,-2.7092,-2.706,-2.7061,-2.7055,-2.7064,-2.7127,-2.7152,-2.7102,-2.71,-2.7111,-2.7178,-2.7201,-2.7209,-2.7307,-2.723,-2.7235,-2.7239,-2.7241,-2.7478,-2.7481,0,0,0,0,0,0,-2.694,-2.6956,-2.7089,-2.7094,-2.6999,-2.7061,-2.7071,-2.7104,-2.7151,-2.7156,-2.7113,-2.7109,-2.7193,-2.7202,-2.7211,-2.7316,-2.7236,-2.7242,-2.7245,-2.7475,-2.7479,-2.7482,0,0,0,0,0,0,-2.6937,-2.6953,-2.7086,-2.7025,-2.7041,-2.7067,-2.7104,-2.7107,-2.713,-2.7159,-2.7164,-2.7132,-2.7191,-2.7203,-2.7277,-2.7319,-2.7244,-2.725,-2.7472,-2.7476,-2.748,-2.7525,0,0,0,0,0,0,-2.6932,-2.6951,-2.6985,-2.7026,-2.7045,-2.7151,-2.7106,-2.711,-2.714,-2.7136,-2.7179,-2.7183,-2.719,-2.7269,-2.7283,-2.7325,-2.7254,-2.7468,-2.7474,-2.7479,-2.752,-2.7531,-2.7539,0,0,0,0,0,-2.6925,-2.6994,-2.6987,-2.7003,-2.7087,-2.7153,-2.7164,-2.717,-2.7143,-2.7177,-2.7196,-2.7182,-2.7312,-2.7276,-2.7292,-2.7337,-2.7466,-2.7472,-2.7479,-2.7516,-2.7529,-2.7539,0,0,0,0,0,0,-2.6956,-2.6999,-2.6992,-2.7075,-2.7111,-2.7149,-2.7192,-2.7183,-2.7227,-2.7222,-2.7227,-2.7237,-2.7313,-2.7332,-2.7292,-2.7423,-2.7385,-2.7395,-2.7408,-2.742,-2.7429,-2.7423,-2.7259,0,0,0,0,0,-2.6973,-2.7024,-2.7058,-2.7129,-2.7147,-2.7166,-2.7195,-2.7197,-2.7234,-2.7249,-2.7273,-2.7309,-2.7358,-2.739,-2.7436,-2.7523,-2.7532,-2.7561,-2.7571,-2.7579,-2.7587,-2.7635,-2.7648,-2.7503,-2.7503,-2.7503,0,0,-2.7008,-2.7038,-2.7069,-2.7136,-2.7163,-2.7215,-2.7179,-2.7235,-2.7274,-2.7257,-2.7329,-2.7348,-2.7388,-2.7469,-2.7505,-2.7487,-2.7629,-2.7587,-2.7593,-2.7597,-2.7643,-2.7656,-2.7669,-2.7507,-2.7506,-2.7506,0,0,-2.7098,-2.7126,-2.7188,-2.7217,-2.7259,-2.7272,-2.7286,-2.7326,-2.7339,-2.741,-2.7399,-2.7445,-2.7529,-2.7558,-2.7584,-2.7686,-2.7674,-2.77,-2.7751,-2.7797,-2.7808,-2.7819,-2.7855,-2.7868,-2.7709,-2.7709,-2.7709,0,-2.7136,-2.7215,-2.7221,-2.7279,-2.7308,-2.7296,-2.7359,-2.7386,-2.7441,-2.7462,-2.7441,-2.7546,-2.7572,-2.766,-2.7685,-2.7706,-2.7723,-2.7696,-2.7806,-2.7817,-2.7826,-2.7861,-2.7875,-2.7712,-2.7712,-2.7711,-2.7711,0,-2.726,-2.7314,-2.7359,-2.7414,-2.7448,-2.7508,-2.7523,-2.7557,-2.7556,-2.7571,-2.7645,-2.7676,-2.7728,-2.7749,-2.7748,-2.7837,-2.7824,-2.7805,-2.7767,-2.7843,-2.7876,-2.789,-2.7716,-2.7715,-2.7714,-2.7713,0,0,-2.7372,-2.743,-2.7446,-2.7471,-2.7517,-2.7559,-2.7618,-2.7671,-2.77,-2.7738,-2.7789,-2.786,-2.7842,-2.7872,-2.7874,-2.7915,-2.7994,-2.789,-2.7891,-2.7909,-2.8094,-2.8109,-2.8124,-2.7987,-2.7989,-2.7991,-2.809,0,-2.7467,-2.7572,-2.758,-2.7675,-2.7725,-2.7714,-2.7766,-2.7799,-2.7815,-2.786,-2.7876,-2.7927,-2.79,-2.7917,-2.7957,-2.7976,-2.8031,-2.7969,-2.8033,-2.8035,-2.8024,-2.8141,-2.8157,-2.8249,-2.8103,-2.8106,-2.8107,0,-2.7592,-2.7635,-2.7735,-2.7775,-2.7796,-2.7843,-2.7891,-2.7934,-2.7972,-2.798,-2.8013,-2.801,-2.8071,-2.803,-2.8114,-2.8072,-2.8098,-2.8112,-2.8115,-2.8122,-2.8076,-2.8152,-2.8279,-2.8293,-2.8128,-2.8126,-2.8124,0,-2.7665,-2.7748,-2.7819,-2.784,-2.7887,-2.792,-2.7942,-2.7977,-2.8008,-2.805,-2.8071,-2.8119,-2.8146,-2.8183,-2.8193,-2.8163,-2.8277,-2.8237,-2.8286,-2.8286,-2.8311,-2.8309,-2.8445,-2.8327,-2.8327,-2.8327,-2.8326,0,-2.777,-2.7832,-2.7852,-2.7896,-2.7965,-2.7972,-2.804,-2.8059,-2.8091,-2.8138,-2.8131,-2.8175,-2.8185,-2.8231,-2.8239,-2.8308,-2.832,-2.8328,-2.8329,-2.8329,-2.8328,-2.8347,-2.8341,-2.833,-2.8329,-2.8329,-2.8328,0,-2.7864,-2.7879,-2.7956,-2.7995,-2.8006,-2.8055,-2.8088,-2.813,-2.8144,-2.8204,-2.8218,-2.8241,-2.8295,-2.8308,-2.8372,-2.8378,-2.8459,-2.8454,-2.8446,-2.8446,-2.8494,-2.849,-2.8647,-2.8668,-2.8536,-2.8537,-2.8538,0,-2.793,-2.7978,-2.8022,-2.8053,-2.8076,-2.8126,-2.8158,-2.8167,-2.82,-2.8247,-2.8284,-2.8337,-2.838,-2.8466,-2.8488,-2.8537,-2.8534,-2.8586,-2.8541,-2.8539,-2.8535,-2.8533,-2.8538,-2.8594,-2.8596,-2.8597,-2.8598,0,-2.8047,-2.8053,-2.8099,-2.8148,-2.8187,-2.8226,-2.8263,-2.8289,-2.8303,-2.8341,-2.8396,-2.843,-2.8496,-2.8549,-2.8598,-2.862,-2.8611,-2.8611,-2.8625,-2.8626,-2.862,-2.8624,-2.847,-2.8608,-2.8607,-2.8606,-2.8606,-2.8605,-2.813,-2.8171,-2.8209,-2.8261,-2.829,-2.8326,-2.8367,-2.8387,-2.8433,-2.8488,-2.849,-2.8551,-2.8587,-2.8653,-2.8677,-2.8724,-2.8709,-2.8729,-2.8734,-2.8739,-2.8744,-2.8612,-2.8733,-2.8733,-2.8733,-2.8733,-2.8732,0,-2.8247,-2.827,-2.8318,-2.8371,-2.8412,-2.8401,-2.8442,-2.8476,-2.853,-2.8565,-2.8608,-2.8672,-2.8723,-2.8749,-2.88,-2.8833,-2.883,-2.8846,-2.8844,-2.8849,-2.8754,-2.8737,-2.8847,-2.8847,-2.8847,-2.8847,-2.8847,-2.8847,-2.8312,-2.8383,-2.8393,-2.8478,-2.8501,-2.856,-2.8585,-2.8617,-2.8645,-2.8717,-2.876,-2.8777,-2.8808,-2.8861,-2.8908,-2.8914,-2.8934,-2.8952,-2.8956,-2.8867,-2.8855,-2.8844,-2.8829,-2.8955,-2.8956,-2.9047,-2.9047,-2.9048]}]]